Location: ?????
(33.2814°N, 35.3967°E)
Time: 03:37:57
(UTC+00:00)

Daily predictions for brighter satellites

Satellite Brightness Start Highest point End
(mag) Time Altitude Azimuth Time Altitude Azimuth Time Altitude Azimuth
Cosmos 2333 Rocket 3.6 01:13:15 29° NNE 01:13:15 29° NNE 01:15:59 10° NNE
NOSS 3-4 (A) 4.0 01:11:04 50° SE 01:11:30 51° ESE 01:17:25 10° NE
NOSS 3-4 (C) 4.0 01:11:04 49° SE 01:11:36 50° ESE 01:17:31 10° NE
USA 234 4.3 01:09:37 10° ESE 01:15:34 39° NE 01:19:10 22° NNW
Cosmos 1844 4.4 01:20:19 46° SSE 01:20:19 46° SSE 01:24:14 10° SSE
BREEZE-M DEB (TANK) 4.4 01:20:10 25° ENE 01:20:10 25° ENE 01:21:31 10° E
Cosmos 2181 Rocket 4.4 01:15:58 10° N 01:22:14 61° E 01:28:21 10° SSE
Cosmos 614 Rocket 4.4 01:37:12 32° S 01:39:29 61° ESE 01:44:38 10° NNE
Cosmos 2219 Rocket 3.4 01:41:53 27° NNW 01:41:53 27° NNW 01:44:45 10° N
Cosmos 389 Rocket 4.4 01:39:29 26° ESE 01:40:01 27° E 01:42:59 10° NNE
Milstar 3 4.1 01:37:46 22° SSW 01:40:40 29° SSE 01:46:25 10° E
MSX 3.7 01:38:51 10° NNE 01:44:36 87° ESE 01:49:03 18° SSW
PAYLOAD A 4.2 01:40:01 10° NNE 01:44:52 68° ESE 01:49:54 10° S
Cosmos 1992 Rocket 3.8 01:45:42 76° SW 01:45:42 76° SW 01:50:36 10° S
Cosmos 2237 Rocket 2.2 01:45:28 38° SSW 01:47:46 83° ESE 01:53:28 10° NNE
IDEFIX/ARIANE 42P 3.3 01:42:56 10° N 01:46:19 37° NNW 01:46:19 37° NNW
BREEZE-M DEB (TANK) 4.4 01:47:34 47° SSW 01:49:13 79° SE 02:05:13 10° NE
CENTAUR R/B 4.4 01:42:09 10° NNW 01:49:41 38° NE 01:57:36 10° ESE
ATLAS 2AS CENTAUR R/B 3.1 01:49:25 45° WSW 01:51:35 58° NW 01:59:33 10° NNE
COSMOS 2428 4.0 02:03:10 23° NNW 02:03:10 23° NNW 02:06:13 10° N
Cosmos 1758 3.9 01:57:39 10° N 02:01:36 56° E 02:05:33 10° SSE
USA 238 DEB 3.8 01:55:19 11° NNW 02:02:22 87° WSW 02:09:50 10° SSE
USA 238 3.8 01:55:22 11° NNW 02:02:28 88° WSW 02:09:56 10° SSE
Cosmos 1980 3.6 02:02:38 38° SW 02:04:43 64° WNW 02:10:20 10° NNE
Cosmos 2154 Rocket 4.5 02:02:49 10° S 02:08:54 62° E 02:15:01 10° NNE
Cosmos 1023 Rocket 4.5 02:03:51 10° SSW 02:09:02 82° ESE 02:14:13 10° NNE
Milstar 3 Cent rocket 3.5 02:06:39 19° SSW 02:09:38 29° SSE 02:13:43 10° ESE
PSLV R/B 3.9 02:12:46 40° ESE 02:12:46 40° ESE 02:14:51 10° ENE
RESURS DK-1 3.5 02:09:41 10° S 02:13:35 43° ESE 02:17:31 10° NE
Cosmos 676 Rocket 4.2 02:12:15 10° S 02:17:32 74° ESE 02:22:47 10° NNE
Cosmos 2184 Rocket 3.9 02:12:31 10° SSW 02:18:38 64° W 02:24:50 10° N
Meteor 1-31 Rocket 2.5 02:14:55 10° N 02:18:42 78° WNW 02:22:28 10° SSW
Cosmos 1707 2.6 02:16:57 10° SSW 02:20:49 69° W 02:24:44 10° N
Okean 1-7 Rocket 4.5 02:19:20 10° SSE 02:23:35 51° E 02:27:55 10° NNE
Cosmos 1470 2.6 02:22:27 10° NNW 02:26:20 67° W 02:30:10 10° S
CZ-4B R/B 3.9 02:23:41 10° N 02:27:39 61° WNW 02:31:47 10° SSW
Cosmos 1190 Rocket 4.2 02:23:22 14° SW 02:27:40 49° WNW 02:32:49 10° N
NOSS 3-2 (A) 4.1 02:20:15 10° NW 02:28:08 72° WSW 02:36:38 10° SSE
Cosmos 407 Rocket 3.8 02:26:57 22° SW 02:29:44 40° WNW 02:34:33 10° N
Cosmos 1484 Rocket 3.1 02:31:55 10° NNE 02:35:42 66° E 02:39:31 10° S
Nadezhda 3 Rocket 4.3 02:29:40 10° N 02:36:03 74° E 02:42:21 10° S
COSMO-SKYMED 1 3.9 02:32:47 10° SE 02:36:51 42° ENE 02:40:57 10° N
H-2A R/B 3.8 02:34:19 10° NNW 02:36:53 21° WNW 02:36:53 21° WNW
GPS 2-05 Rocket1 4.0 02:37:42 19° SSW 02:37:42 19° SSW 02:39:43 10° SSE
SL-16 R/B 2.3 02:34:29 10° SSW 02:40:08 84° ESE 02:45:49 10° NNE
CZ-2C R/B 3.0 02:38:55 10° N 02:43:40 37° WNW 02:48:21 10° SW
ALOS 3.5 02:40:01 10° NNE 02:44:29 45° E 02:48:57 10° S
Cosmos 1726 3.7 02:45:32 10° N 02:48:59 38° E 02:52:25 10° SSE
Cosmos 1674 3.6 02:46:56 10° S 02:50:30 49° E 02:54:07 10° NNE
NOSS 3-2 (C) 4.1 02:43:28 10° NW 02:51:23 75° WSW 02:59:57 10° SSE
Meteor 1-4 Rocket 3.1 02:48:56 10° SW 02:52:08 33° W 02:55:20 10° NNW
Cosmos 2278 Rocket 2.4 02:51:51 10° NNW 02:57:18 49° WSW 03:02:43 10° S
Cosmos 1726 Rocket 3.4 02:53:00 10° N 02:57:19 82° W 03:01:37 10° S
USA 234 3.5 02:52:02 10° SSE 02:58:22 53° SW 03:04:45 10° NW
Cosmos 292 Rocket 4.4 02:54:40 10° NW 02:58:58 34° W 03:03:18 10° SSW
Cosmos 44 2.9 02:56:49 10° NNW 03:01:08 72° WSW 03:05:25 10° SSE
Cosmos 2228 2.9 02:57:15 10° NNW 03:01:28 67° W 03:05:39 10° S
Cosmos 1295 Rocket 4.5 02:56:41 10° SSW 03:02:49 63° W 03:08:56 10° N
Meteor 2-5 Rocket 4.0 02:57:12 10° S 03:02:55 79° E 03:08:47 10° N
METEOR-M 4.3 02:58:23 10° NNE 03:03:45 78° ESE 03:09:04 10° S
Okean O Rocket 1.8 02:59:50 10° NNE 03:04:15 79° ESE 03:08:36 10° S
Delta 7925 Rocket 4.5 02:59:49 10° WSW 03:05:22 39° S 03:09:59 10° ESE
SL-8 Rocket 4.3 02:59:55 10° S 03:06:06 74° E 03:12:15 10° N
Cosmos 1954 Rocket 4.5 03:01:15 10° SW 03:06:08 39° WNW 03:11:02 10° N
Cosmos 921 Rocket 4.4 03:08:31 10° NW 03:11:17 17° W 03:14:00 10° SW
Cosmos 2058 Rocket 3.1 03:09:11 10° N 03:13:37 85° W 03:18:03 10° S
Cosmos 389 Rocket 4.4 03:14:12 10° W 03:14:48 10° WNW 03:15:24 10° WNW
CZ-4B R/B 4.5 03:13:45 10° NNW 03:15:59 15° WNW 03:18:10 10° WSW
Cosmos 1437 Rocket 2.9 03:12:48 10° SSW 03:16:27 45° W 03:20:05 10° N
